Location: LDNL
(36.4545°S, 141.6685°E)
Time: 10:41:56
(UTC+11:00)

S-56A Canister/Altair - Visible Passes

Search period start: 23 January 2022 00:00
Search period end: 02 February 2022 00:00
Orbit: 634 x 2499 km, 38.9° (Epoch: 22 January)

Date Brightness Start Highest point End Pass type
(mag) Time Alt. Az. Time Alt. Az. Time Alt. Az.
23 Jan 9.4 00:07:19 10° W 00:21:07 79° S 00:30:28 10° E visible
23 Jan 8.6 02:15:26 10° WSW 02:26:55 83° NNW 02:27:51 73° NE visible
23 Jan 10.2 04:23:10 10° W 04:37:42 - NNE 04:25:08 16° W visible
23 Jan 9.8 21:25:51 10° WNW 21:41:04 77° NNE 21:53:11 10° ESE visible
23 Jan 9.5 23:33:26 10° W 23:47:49 80° S 23:57:49 10° E visible
24 Jan 8.8 01:41:40 10° WSW 01:53:57 87° NNW 01:55:31 67° ENE visible
24 Jan 10.1 03:49:26 10° WSW 03:52:51 21° W 03:52:51 21° W visible
24 Jan 10.0 20:52:22 10° NW 21:07:33 73° NNE 21:20:15 10° ESE visible
24 Jan 9.6 22:59:34 10° W 23:14:25 81° S 23:25:07 10° E visible
25 Jan 9.0 01:07:51 10° WSW 01:20:52 89° SSE 01:23:31 55° ENE visible
25 Jan 9.9 03:15:42 10° WSW 03:20:52 28° W 03:20:52 28° W visible
25 Jan 9.8 22:25:45 10° W 22:40:56 83° S 22:52:20 10° E visible
26 Jan 9.2 00:34:01 10° WSW 00:47:41 86° SSE 00:51:41 44° E visible
26 Jan 9.7 02:41:55 10° WSW 02:49:02 37° W 02:49:02 37° W visible
26 Jan 9.9 21:52:01 10° WNW 22:07:23 85° SSW 22:19:29 10° ESE visible
27 Jan 9.4 00:00:09 10° W 00:14:25 84° S 00:19:57 35° E visible
27 Jan 9.4 02:08:08 10° WSW 02:17:19 48° WNW 02:17:19 48° WNW visible
27 Jan 10.0 21:18:21 10° WNW 21:33:47 88° SSW 21:46:33 10° ESE visible
27 Jan 9.6 23:26:18 10° W 23:41:02 82° S 23:48:17 26° E visible
28 Jan 9.2 01:34:19 10° WSW 01:45:39 61° WNW 01:45:39 61° WNW visible
28 Jan 9.7 22:52:28 10° W 23:07:34 81° S 23:16:40 19° E visible
29 Jan 9.1 01:00:30 10° WSW 01:13:51 72° NNW 01:14:03 71° NNW visible
29 Jan 10.8 03:09:09 10° W 03:11:24 15° W 03:11:24 15° W visible
29 Jan 9.9 22:18:41 10° W 22:34:02 81° S 22:45:06 13° E visible
30 Jan 9.1 00:26:40 10° WSW 00:40:42 77° NNW 00:42:28 66° NNE visible
30 Jan 10.5 02:35:04 10° WSW 02:39:50 22° W 02:39:50 22° W visible
30 Jan 10.0 21:44:58 10° W 22:00:25 81° S 22:13:00 10° E visible
30 Jan 9.4 23:52:51 10° WSW 00:07:26 82° NNW 00:10:56 53° NE visible
31 Jan 10.2 02:01:04 10° WSW 02:08:19 30° WNW 02:08:19 30° WNW visible
31 Jan 10.1 21:11:19 10° W 21:26:44 81° S 21:39:58 10° E visible
31 Jan 9.6 23:19:04 10° WSW 23:34:04 86° NNW 23:39:26 41° ENE visible
01 Feb 9.9 01:27:06 10° WSW 01:36:49 39° WNW 01:36:49 39° WNW visible
01 Feb 9.7 22:45:18 10° WSW 23:00:36 89° NNW 23:07:58 31° ENE visible
